Tracking 22779 objects as of 12-Apr-2021
HD Live streaming from Space Station
objects crossing your sky now

STARLINK-1923

Track STARLINK-1923 now!
10-day predictions
STARLINK-1923 is classified as:


NORAD ID: 46754
Int'l Code: 2020-074R
Perigee: 554.1 km
Apogee: 554.6 km
Inclination: 53.1 °
Period: 95.6 minutes
Semi major axis: 6925 km
RCS: Unknown
Launch date: October 24, 2020
Source: United States (US)
Launch site: AIR FORCE EASTERN TEST RANGE (AFETR)
aabbcc
Your satellite tracking list
Your tracking list is empty




NASA's NSSDC Master Catalog

Two Line Element Set (TLE):
1 46754U 20074R   21102.11149434 -.00000857  00000-0 -38674-4 0  9996
2 46754  53.0555  88.8144 0000363  70.6248 289.4780 15.06397848 26505
Source of the keplerian elements: AFSPC